Dewpoint
44 45 47 49 49 49 49 50 49 48 48 48 48 48 50 52 53 54 54 54 54 54 54 53 54 54 54 54 54 54 55 55 55 55 55 55 55 55 55 55 55 55 55 55 55 55 55 55 55 55 56 56 57 58 58 59 60 60 60 60 60 61 61 60 60 60 60 60 60 60 60 60 60 59 58 58 58 58 58 58 59 59 59 59 58 59
44 45 46 47 47 47 47 48 48 47 46 46 46 46 47 50 52 53 54 54 53 53 52 52 53 53 54 54 54 54 54 55 55 55 55 55 55 55 55 55 55 55 55 54 54 54 54 54 55 55 55 55 56 56 57 58 58 59 59 60 60 60 60 60 60 60 60 60 60 60 60 59 58 58 58 58 58 58 58 58 59 59 59 59 59 59
41 42 43 44 45 46 46 46 47 48 47 46 46 46 47 48 50 51 52 52 52 52 51 51 51 52 53 54 54 54 54 54 54 55 55 55 55 55 55 55 54 54 54 54 54 54 54 54 54 54 54 55 55 55 55 56 57 57 58 58 58 58 59 59 59 59 59 59 59 58 58 58 57 57 57 58 58 58 58 58 58 59 59 59 59 59
38 38 39 41 42 43 45 46 46 47 48 48 48 48 48 49 50 50 51 51 50 50 50 50 50 51 51 52 53 53 54 54 54 54 54 55 55 55 55 54 54 54 54 54 54 54 54 54 54 54 54 54 54 54 55 55 55 56 56 56 57 57 57 57 58 58 57 57 57 57 57 57 57 57 57 58 58 58 58 58 58 58 58 58 58 59
37 37 37 38 38 39 42 44 46 46 47 48 49 49 50 50 51 51 51 50 50 50 49 49 49 49 50 51 52 52 53 53 53 53 54 54 54 54 54 54 54 54 54 54 54 54 54 54 54 54 54 54 54 54 54 54 55 55 55 55 55 56 56 56 56 56 56 56 56 56 56 56 56 57 57 58 58 58 58 58 58 58 58 58 58 58
35 36 36 37 37 37 39 41 42 44 45 46 48 49 50 50 50 50 50 50 50 50 50 49 49 49 49 50 51 51 52 52 52 53 53 53 54 54 54 54 54 54 54 54 53 53 53 53 53 53 53 54 54 54 54 54 54 54 55 55 55 55 55 55 55 55 55 55 55 55 55 56 56 56 57 57 58 58 58 58 58 58 58 58 58 58
34 35 36 36 37 38 39 40 40 41 42 43 45 47 48 49 49 49 48 48 48 49 49 49 49 49 49 49 50 51 51 52 52 52 52 53 53 53 53 53 53 53 53 53 53 53 53 53 53 53 53 53 53 54 54 54 54 54 54 54 54 55 55 55 55 55 55 55 55 55 55 55 55 55 56 56 57 57 58 58 58 58 58 58 58 58
33 34 35 36 37 37 38 39 40 40 40 40 41 42 44 46 46 47 48 48 48 47 47 48 48 48 48 49 49 49 50 50 51 51 51 52 52 52 52 53 53 53 53 53 53 53 53 53 53 53 53 53 53 53 53 53 53 53 53 53 54 54 54 55 55 55 55 55 55 55 55 55 55 55 55 55 56 56 57 57 57 58 58 57 57 57
33 33 34 36 36 36 35 36 38 39 40 40 40 40 40 40 42 45 46 48 48 47 47 46 46 47 47 47 48 48 49 49 49 50 50 50 51 51 51 52 52 52 52 52 52 52 52 52 52 52 52 52 52 53 53 53 52 52 53 53 53 53 54 54 54 54 55 55 55 55 55 55 55 55 55 55 55 55 55 56 57 57 57 57 57 57
33 32 32 33 34 34 34 33 35 37 40 42 42 42 42 40 41 42 42 45 46 47 47 46 46 46 46 46 46 47 48 49 49 50 50 50 50 50 51 51 51 51 51 52 52 52 52 52 52 52 52 52 52 52 52 52 51 52 52 52 52 53 53 53 54 54 54 54 54 54 54 54 55 55 55 55 55 55 55 55 56 56 57 57 57 58
31 31 30 30 31 32 33 33 34 37 42 44 46 46 46 45 44 43 42 42 43 44 45 46 46 46 45 45 46 46 47 47 48 49 50 49 50 50 50 50 50 51 51 51 51 51 51 51 51 51 51 51 51 51 51 51 51 51 51 51 52 52 52 53 53 53 54 54 54 54 54 54 54 55 55 54 54 54 54 54 55 55 56 57 57 58
30 29 29 29 29 30 31 33 35 38 43 45 46 46 46 46 46 45 44 43 42 42 42 43 45 46 46 46 46 46 46 47 47 48 48 49 49 49 48 48 49 49 50 50 51 51 51 51 51 51 51 51 51 51 51 51 51 51 51 51 51 52 52 52 52 53 53 53 54 54 54 54 54 54 54 54 54 54 54 54 54 54 55 56 57 57
29 29 29 29 29 29 30 31 32 35 39 41 42 41 41 42 43 43 42 42 42 42 42 42 43 45 47 47 47 46 46 47 48 48 48 48 48 47 47 47 47 47 48 48 49 49 50 50 50 50 50 50 50 50 50 50 50 50 51 51 51 51 51 52 52 52 53 53 53 53 53 54 54 54 54 54 54 54 53 53 53 54 54 55 56 57
29 29 29 28 28 29 29 30 30 31 33 35 37 38 39 40 41 41 41 41 41 41 42 42 42 42 46 48 48 48 47 48 48 48 48 47 47 47 46 46 46 46 47 47 47 47 48 49 49 49 50 50 49 49 49 50 50 50 50 51 51 51 51 51 52 52 52 52 53 53 53 53 53 54 54 54 54 53 53 53 53 53 53 54 55 56
29 28 28 28 28 28 28 29 29 29 29 31 33 36 37 38 39 40 40 40 40 41 41 41 41 42 43 46 48 48 48 48 47 47 47 47 47 46 46 46 46 46 46 46 46 47 47 47 47 48 48 49 49 49 49 49 50 50 50 50 51 51 51 51 51 52 52 52 52 52 53 53 53 53 53 53 53 53 53 52 52 53 53 53 54 55
28 28 28 28 28 28 28 28 28 28 28 30 32 33 34 35 37 38 39 39 39 40 40 40 40 40 41 44 46 48 48 47 46 46 46 46 46 46 46 46 46 46 46 46 46 46 46 46 47 47 47 48 48 48 48 49 49 49 50 50 50 50 51 51 51 51 51 52 52 52 52 52 53 53 53 53 53 52 52 52 52 52 53 53 53 54
28 28 28 28 28 28 27 27 27 28 28 29 30 31 33 33 35 36 37 38 39 39 40 40 39 39 39 41 44 47 48 46 46 45 44 44 45 46 46 46 45 45 45 46 46 46 46 47 47 47 47 47 48 48 48 49 49 49 49 50 50 50 50 50 51 51 51 51 52 52 52 52 52 52 52 52 52 52 52 52 52 52 52 53 53 53
27 28 28 28 28 28 28 27 27 27 28 28 28 30 32 33 34 35 36 37 38 39 42 42 42 42 40 39 42 46 48 46 45 44 44 43 44 45 46 46 45 45 45 45 46 46 46 46 46 46 47 48 48 48 48 48 49 49 49 49 49 49 50 50 50 51 51 51 51 51 52 52 52 52 52 52 52 52 51 52 52 52 52 52 53 53
26 27 27 27 27 27 28 27 27 27 26 27 28 29 30 32 33 34 34 36 37 39 42 43 44 44 43 41 43 46 47 46 45 44 43 43 43 45 46 46 46 45 45 45 45 46 46 46 46 46 47 47 48 48 48 48 49 49 49 49 49 49 49 50 50 50 51 51 51 51 51 51 51 51 51 51 51 51 51 51 52 52 52 52 53 53
27 26 26 26 26 27 27 27 27 27 27 28 28 29 30 32 34 36 37 37 38 39 41 42 43 43 43 42 42 44 46 46 45 44 43 43 43 44 46 46 45 45 44 44 45 45 46 45 45 45 46 46 47 48 48 48 49 49 49 49 49 49 49 49 50 50 51 51 51 51 51 51 51 51 51 51 51 51 51 51 51 52 52 52 52 52
27 26 26 26 26 26 26 27 28 28 29 32 33 33 33 35 36 37 37 38 39 41 43 43 43 43 44 42 42 42 45 45 44 43 42 42 42 43 44 45 45 44 44 44 44 45 45 45 45 46 46 46 47 47 48 48 49 49 49 49 49 49 49 49 49 50 50 51 51 51 51 51 51 51 51 51 51 51 51 51 51 51 51 51 51 52
28 27 27 27 28 28 28 28 29 30 32 34 34 33 33 33 34 35 36 37 38 40 41 41 42 43 45 45 45 46 46 45 44 43 42 41 40 41 43 44 44 43 43 43 44 44 45 45 45 46 46 46 46 47 47 48 48 48 49 49 49 49 49 49 49 49 50 50 51 51 51 51 51 51 51 51 51 51 51 51 51 51 51 51 51 51
30 29 29 29 29 29 29 30 30 31 32 33 33 32 33 33 33 33 34 35 36 37 38 39 41 42 42 42 43 44 46 46 46 45 43 41 40 40 43 43 43 43 42 42 43 43 44 44 45 45 46 46 47 47 47 47 47 48 48 48 49 49 49 49 49 49 50 50 51 51 51 51 51 51 51 51 50 51 51 51 51 51 51 51 51 51
31 31 31 31 31 32 32 32 32 32 32 32 32 33 34 34 33 33 33 34 35 35 36 36 37 37 38 39 40 42 44 45 46 45 44 43 41 41 42 43 43 42 42 42 42 43 43 44 44 45 46 46 46 47 47 47 47 47 48 48 49 49 49 49 49 49 50 50 51 51 51 51 51 51 51 50 50 50 50 50 50 50 50 50 50 50
32 32 32 33 33 33 33 33 33 33 32 32 32 32 33 33 33 33 33 33 33 33 33 33 33 33 34 35 37 39 42 44 45 45 44 43 43 43 43 43 42 42 42 42 42 43 43 44 44 45 46 46 46 46 46 46 47 47 47 48 49 49 49 49 49 49 50 50 50 51 51 51 51 51 50 50 50 50 50 50 50 50 50 49 49 49
32 33 33 34 34 35 35 35 35 35 34 33 33 33 33 33 33 33 32 32 31 31 31 31 31 32 32 33 33 35 39 43 44 44 43 43 43 43 45 44 43 42 42 42 42 43 43 44 44 45 45 46 46 46 46 46 46 47 47 48 49 49 49 49 49 49 50 50 50 50 50 51 51 50 50 50 50 50 50 50 49 49 49 48 48 48
33 33 34 34 35 35 35 35 35 36 36 35 34 34 34 34 34 33 32 31 31 30 30 30 30 30 31 31 31 32 35 40 43 44 44 43 42 42 43 44 44 44 43 42 42 43 43 43 44 44 45 45 46 46 46 46 46 47 47 48 49 49 49 49 49 50 50 50 50 50 50 50 50 50 50 50 50 50 49 49 49 48 48 48 47 47
36 36 36 36 36 36 35 35 35 35 35 35 36 36 36 35 34 34 33 33 32 32 31 31 30 30 30 30 30 31 32 37 41 43 44 43 42 42 42 44 44 44 43 43 43 43 43 42 43 43 43 44 45 46 46 46 47 47 48 48 49 49 49 49 50 50 50 50 50 50 50 50 50 50 50 50 49 49 49 48 48 48 47 47 46 46
37 37 38 38 38 38 38 37 37 37 37 37 37 37 36 35 34 35 35 35 35 34 33 33 32 31 30 30 30 31 32 33 37 42 44 42 41 41 42 43 43 43 43 42 42 42 41 42 42 42 42 43 44 45 46 46 47 47 48 48 49 49 49 49 49 50 50 50 50 50 50 50 50 50 49 49 49 49 48 48 48 47 46 46 46 45
35 36 36 37 37 38 39 39 39 40 40 39 39 38 37 36 36 36 37 37 37 37 36 35 35 35 34 33 33 33 33 34 37 41 43 42 41 40 41 42 42 42 42 42 41 41 40 40 41 41 41 42 43 44 45 46 46 47 47 48 48 49 49 49 49 49 49 50 50 50 50 50 50 49 49 49 48 48 48 47 47 47 46 45 45 44
29 30 30 31 33 34 36 37 38 39 40 40 40 40 39 39 39 39 39 39 38 37 37 37 37 37 37 37 36 36 36 37 40 43 43 42 40 40 40 41 42 42 42 41 40 39 38 39 40 41 41 42 42 43 44 45 45 46 46 47 48 48 49 48 48 49 49 49 49 49 49 49 49 49 48 48 48 48 47 47 47 46 45 45 44 43
26 26 26 27 28 28 29 30 31 33 35 36 37 38 39 40 40 40 40 40 39 38 38 37 37 37 37 37 36 36 37 40 42 44 44 42 41 41 41 40 41 42 42 42 40 39 38 39 40 41 41 42 42 42 43 44 44 44 45 46 46 47 48 48 48 49 49 49 49 49 49 49 49 48 48 48 47 47 47 46 46 46 45 44 43 42
27 27 26 26 26 26 26 26 26 27 28 29 31 33 34 36 37 38 39 39 39 39 38 37 37 37 37 37 37 36 36 37 40 42 43 42 41 41 41 41 41 41 42 42 41 40 39 40 40 40 40 41 41 42 42 43 43 43 43 44 45 46 47 48 49 49 49 49 49 49 49 48 48 48 48 47 47 47 46 46 46 46 45 43 42 42
27 26 26 26 26 26 26 26 26 26 26 27 27 28 29 30 32 33 34 35 36 37 37 37 37 36 36 36 36 35 34 34 36 38 42 42 41 41 41 41 41 41 41 41 41 41 40 40 40 40 39 39 40 41 42 42 42 42 42 43 44 45 46 48 48 48 48 48 48 48 48 48 48 48 47 47 47 46 46 46 46 45 45 43 42 42
26 27 28 28 29 29 29 28 28 27 27 27 27 28 28 28 28 29 31 32 33 33 33 33 34 34 34 34 34 33 31 32 33 37 41 41 41 41 40 40 41 41 40 40 40 40 40 40 40 40 39 38 39 39 41 41 42 42 42 42 43 44 45 46 47 47 47 47 47 47 47 47 47 47 47 47 46 46 46 46 46 45 45 44 43 42
31 32 33 33 33 33 33 32 32 31 31 30 30 30 30 31 31 31 32 32 32 32 32 32 33 33 33 33 32 31 30 31 32 34 37 39 40 40 40 40 40 41 40 40 40 40 39 39 40 40 40 39 38 39 40 40 41 40 40 40 41 43 44 46 46 46 46 46 46 46 46 46 46 46 46 46 46 46 46 46 46 45 45 44 43 42
33 33 33 34 34 34 34 34 34 34 34 35 35 36 37 36 36 36 36 35 35 34 33 33 33 34 34 34 33 33 33 33 33 35 36 38 39 40 40 39 40 41 41 40 40 40 39 39 39 39 39 39 39 39 39 39 39 39 39 39 40 42 43 45 46 46 46 45 45 45 45 45 45 45 46 46 46 46 46 46 45 45 44 44 43 42
30 30 30 31 31 32 32 33 34 35 35 36 36 37 37 37 36 36 36 37 37 36 35 35 35 35 37 36 36 36 36 36 36 37 37 38 39 39 39 39 39 40 41 41 40 40 39 39 38 38 38 38 39 39 39 39 38 38 38 39 40 41 42 43 45 45 45 45 44 44 44 44 44 44 45 45 45 45 44 45 45 45 44 43 43 42
28 27 27 27 27 28 28 30 32 33 36 36 37 37 36 35 34 35 36 36 37 37 37 36 36 35 35 34 35 36 37 36 35 34 35 36 37 38 39 39 38 38 39 40 41 41 40 39 38 38 38 38 38 38 39 39 38 38 38 39 39 40 41 42 43 44 45 44 44 44 43 43 43 43 43 43 43 43 42 43 43 43 42 42 42 42
27 27 26 26 25 24 24 24 25 27 29 31 32 33 33 33 33 33 34 34 34 34 34 34 34 33 33 33 33 34 34 35 35 35 35 34 35 37 39 39 39 39 38 39 40 40 40 39 39 39 39 39 38 38 39 39 39 39 39 38 38 39 40 42 42 43 44 43 43 43 42 42 42 42 42 42 42 42 42 42 42 42 42 41 40 40
27 27 27 26 25 24 24 24 24 24 25 28 29 29 30 30 30 30 31 31 31 31 31 31 31 31 31 32 32 33 33 34 35 35 35 34 34 36 38 39 39 40 40 39 39 40 40 40 40 40 40 40 40 40 40 40 40 39 39 38 38 39 40 41 42 42 42 43 43 43 42 42 42 42 42 42 42 42 42 41 41 41 41 40 39 38
28 28 27 27 27 26 26 26 26 27 28 28 28 28 28 28 28 28 28 28 28 28 28 28 28 28 28 28 30 31 33 34 35 35 35 34 34 36 37 38 39 39 40 39 39 40 40 40 40 39 39 40 40 40 40 40 40 40 39 39 39 40 40 41 41 42 42 42 42 42 42 42 41 41 42 42 41 42 42 41 41 41 40 39 39 38
28 28 28 29 29 29 30 31 31 30 30 29 28 28 28 28 28 28 28 28 28 28 28 28 28 28 28 28 28 29 31 33 35 35 36 35 35 36 37 38 39 40 40 39 38 39 39 40 40 40 39 39 39 39 38 39 39 39 38 39 39 39 38 39 40 41 41 42 42 42 42 41 41 41 41 41 41 41 41 41 41 41 40 39 38 38
30 30 31 32 33 33 34 34 34 33 33 33 32 30 29 30 30 30 31 31 32 33 33 33 33 33 33 33 33 33 34 35 36 37 37 37 37 37 38 39 39 40 40 39 38 38 38 39 40 40 40 40 39 38 37 37 37 38 39 39 39 39 38 39 39 40 41 41 41 41 41 41 41 41 41 40 40 40 40 40 40 40 40 39 38 38
29 29 30 31 32 33 32 32 33 33 33 32 31 31 31 32 33 33 33 33 34 34 35 35 34 34 33 33 34 34 34 35 36 37 39 39 39 38 39 39 40 40 40 39 39 39 38 38 39 40 41 41 40 40 39 38 37 37 39 39 40 39 39 39 39 40 40 40 40 40 41 41 40 40 40 39 39 39 39 39 39 39 39 38 38 38
28 27 27 27 28 28 28 29 30 30 30 29 29 29 29 29 30 30 30 31 31 31 31 32 31 31 30 30 30 30 29 30 31 33 35 37 38 39 39 39 39 39 39 39 39 39 39 39 39 39 40 40 40 40 40 40 39 38 39 39 39 40 40 39 39 40 40 40 40 40 40 40 40 39 39 38 38 39 39 39 39 39 38 38 37 37
26 26 26 26 27 28 28 28 28 28 27 27 27 27 27 27 27 27 28 28 28 28 29 29 28 28 28 28 28 28 27 27 28 29 31 33 35 37 38 38 39 39 39 39 39 39 39 39 39 39 39 39 38 38 39 40 40 40 39 39 39 39 39 39 39 40 40 40 40 40 40 40 39 38 38 38 38 38 38 38 39 38 38 37 37 37
26 27 27 27 27 27 26 26 26 26 26 26 26 26 26 26 27 27 27 27 28 28 28 29 29 29 29 29 29 28 28 28 28 29 29 30 32 35 37 37 38 38 39 39 39 39 40 40 40 40 40 38 38 38 38 40 40 40 40 39 39 39 38 39 39 39 40 40 39 39 39 39 38 38 37 37 37 37 37 38 38 38 38 37 37 37
27 28 28 27 26 26 26 26 26 25 25 25 25 25 25 26 27 27 27 28 28 29 29 30 30 30 30 30 30 29 29 29 29 30 30 30 31 33 36 37 37 37 38 38 38 39 39 39 40 40 40 39 38 38 38 39 40 40 40 39 39 38 38 38 39 39 39 39 38 37 38 39 39 38 38 37 37 36 37 37 37 38 38 38 37 37
28 28 27 27 26 26 26 25 25 25 25 24 24 24 24 25 25 26 27 28 28 29 30 30 30 29 29 29 29 29 29 29 30 30 31 31 32 34 36 37 37 37 36 37 37 37 37 37 37 38 39 40 39 39 38 39 40 40 39 39 39 39 38 38 38 39 39 39 38 38 38 39 39 39 38 37 36 36 36 36 37 37 37 37 37 37
28 27 26 25 25 25 25 25 25 25 24 24 24 24 24 25 25 26 27 28 28 29 29 29 29 29 29 29 30 30 30 31 31 32 32 33 34 36 36 36 36 35 34 34 34 34 34 33 33 34 36 38 39 39 38 39 39 39 38 38 39 39 38 38 38 38 38 38 38 38 38 38 38 38 37 37 36 35 35 35 36 36 37 37 37 37